SWR118O ENTC-LSZH

Flight info

Callsign SWR118O
Flight time 3h 26m
Altitude 36000
Route AMIMO DCT GUBAV DCT VABOT DCT SOMUB DCT NIROD/N0449F370 DCT ALASA/N0450F380 DCT OTMON DCT SWALM DCT OMOGI/N0446F370 T721 LAMGO/N0422F270 T721 RILAX
Aircraft A320/M-SDE3FGHIRWY/LB1

Departure

Time 2026-05-05 07:26
Airport Tromsø Airport (ENTC)

Arrival

Time 2026-05-05 10:52
Airport Zürich Airport (LSZH)
Time Latitude Longitude Altitude Speed Heading
2026-05-05 07:02 69.67941 18.90883 38 ft 0 kts 283°
2026-05-05 07:17 69.67939 18.90908 38 ft 3 kts 283°
2026-05-05 07:17 69.67935 18.90960 38 ft 3 kts 283°
2026-05-05 07:18 69.67931 18.91012 38 ft 3 kts 283°
2026-05-05 07:18 69.67926 18.91063 36 ft 3 kts 283°
2026-05-05 07:18 69.67922 18.91114 38 ft 3 kts 283°
2026-05-05 07:18 69.67919 18.91167 37 ft 3 kts 256°
2026-05-05 07:19 69.67928 18.91215 38 ft 3 kts 215°
2026-05-05 07:19 69.67943 18.91235 37 ft 1 kts 190°
2026-05-05 07:21 69.67937 18.91232 37 ft 3 kts 190°
2026-05-05 07:21 69.67909 18.91217 38 ft 6 kts 191°
2026-05-05 07:21 69.67864 18.91189 39 ft 6 kts 192°
2026-05-05 07:21 69.67827 18.91166 40 ft 4 kts 192°
2026-05-05 07:22 69.67803 18.91151 41 ft 3 kts 192°
2026-05-05 07:22 69.67788 18.91141 41 ft 2 kts 192°
2026-05-05 07:22 69.67772 18.91136 41 ft 2 kts 178°
2026-05-05 07:22 69.67756 18.91161 42 ft 3 kts 141°
2026-05-05 07:23 69.67741 18.91270 41 ft 9 kts 103°
2026-05-05 07:23 69.67716 18.91438 39 ft 9 kts 142°
2026-05-05 07:23 69.67647 18.91430 42 ft 11 kts 192°
2026-05-05 07:23 69.67565 18.91377 43 ft 12 kts 193°
2026-05-05 07:24 69.67471 18.91311 41 ft 16 kts 193°
2026-05-05 07:24 69.67355 18.91238 37 ft 17 kts 192°
2026-05-05 07:24 69.67266 18.91236 37 ft 9 kts 182°
2026-05-05 07:24 69.67251 18.91155 36 ft 4 kts 298°
2026-05-05 07:25 69.67276 18.91154 37 ft 5 kts 30°
2026-05-05 07:25 69.67314 18.91203 37 ft 6 kts 15°
2026-05-05 07:25 69.67442 18.91292 41 ft 42 kts 12°
2026-05-05 07:25 69.67903 18.91600 39 ft 94 kts 13°
2026-05-05 07:26 69.68697 18.92130 24 ft 139 kts 13°
2026-05-05 07:26 69.69668 18.92789 462 ft 138 kts 13°
2026-05-05 07:26 69.70585 18.93434 997 ft 135 kts 13°
2026-05-05 07:26 69.71484 18.94076 1547 ft 131 kts 13°
2026-05-05 07:27 69.72409 18.94718 1917 ft 143 kts 13°
2026-05-05 07:27 69.73404 18.95390 2260 ft 151 kts 13°
2026-05-05 07:27 69.74468 18.96087 2555 ft 164 kts 14°
2026-05-05 07:27 69.75621 18.96851 2842 ft 176 kts 14°
2026-05-05 07:28 69.76868 18.97613 3099 ft 191 kts
2026-05-05 07:28 69.78174 18.96652 3397 ft 205 kts 326°
2026-05-05 07:28 69.79002 18.93200 3729 ft 222 kts 288°
2026-05-05 07:28 69.79382 18.88690 3994 ft 240 kts 285°
2026-05-05 07:29 69.79756 18.83864 4551 ft 249 kts 285°
2026-05-05 07:29 69.80130 18.78934 5322 ft 252 kts 284°
2026-05-05 07:29 69.80464 18.73981 6076 ft 256 kts 276°
2026-05-05 07:29 69.80267 18.68811 6842 ft 263 kts 252°
2026-05-05 07:30 69.79382 18.64096 7597 ft 275 kts 230°
2026-05-05 07:30 69.76098 18.57678 8913 ft 295 kts 208°
2026-05-05 07:30 69.74294 18.54792 9682 ft 299 kts 207°
2026-05-05 07:31 69.72431 18.51815 10182 ft 314 kts 208°
2026-05-05 07:31 69.70468 18.48669 10574 ft 331 kts 208°
2026-05-05 07:31 69.68410 18.45360 10945 ft 347 kts 208°
2026-05-05 07:31 69.66249 18.41878 11290 ft 364 kts 208°
2026-05-05 07:32 69.64008 18.38265 11821 ft 372 kts 208°
2026-05-05 07:32 69.61745 18.34620 12525 ft 373 kts 207°
2026-05-05 07:32 69.59476 18.30983 13219 ft 374 kts 207°
2026-05-05 07:32 69.57197 18.27344 13847 ft 376 kts 207°
2026-05-05 07:33 69.54900 18.23695 14447 ft 379 kts 207°
2026-05-05 07:33 69.52582 18.20029 15028 ft 382 kts 207°
2026-05-05 07:33 69.50250 18.16345 15594 ft 384 kts 207°
2026-05-05 07:33 69.47937 18.12691 16126 ft 386 kts 207°
2026-05-05 07:34 69.45576 18.08971 16651 ft 389 kts 207°
2026-05-05 07:34 69.43201 18.05245 17163 ft 391 kts 207°
2026-05-05 07:34 69.40811 18.01503 17655 ft 394 kts 207°
2026-05-05 07:34 69.38374 17.97692 18150 ft 396 kts 207°
2026-05-05 07:35 69.35997 17.93895 18623 ft 398 kts 208°
2026-05-05 07:35 69.33560 17.89907 19100 ft 401 kts 209°
2026-05-05 07:35 69.31139 17.85908 19569 ft 404 kts 209°
2026-05-05 07:35 69.28733 17.81930 20040 ft 407 kts 209°
2026-05-05 07:36 69.26277 17.77890 20514 ft 409 kts 209°
2026-05-05 07:36 69.23805 17.73859 20971 ft 412 kts 208°
2026-05-05 07:36 69.21313 17.69825 21406 ft 414 kts 208°
2026-05-05 07:36 69.18796 17.65769 21816 ft 417 kts 208°
2026-05-05 07:37 69.16271 17.61715 22202 ft 419 kts 208°
2026-05-05 07:37 69.13728 17.57648 22579 ft 421 kts 208°
2026-05-05 07:37 69.11178 17.53579 22936 ft 423 kts 208°
2026-05-05 07:37 69.08610 17.49494 23268 ft 425 kts 208°
2026-05-05 07:38 69.06868 17.46731 23493 ft 427 kts 208°
2026-05-05 07:38 69.04316 17.42680 23801 ft 429 kts 208°
2026-05-05 07:38 69.01721 17.38562 24102 ft 430 kts 208°
2026-05-05 07:38 68.99112 17.34429 24371 ft 432 kts 208°
2026-05-05 07:39 68.96491 17.30287 24622 ft 434 kts 208°
2026-05-05 07:39 68.93858 17.26143 24865 ft 436 kts 208°
2026-05-05 07:39 68.91174 17.21941 25090 ft 438 kts 208°
2026-05-05 07:39 68.88510 17.17787 25307 ft 440 kts 208°
2026-05-05 07:40 68.85834 17.13626 25509 ft 442 kts 208°
2026-05-05 07:40 68.83182 17.09516 25682 ft 443 kts 208°
2026-05-05 07:40 68.80448 17.05296 25859 ft 445 kts 208°
2026-05-05 07:40 68.77774 17.01181 26009 ft 446 kts 207°
2026-05-05 07:41 68.74976 16.97526 26148 ft 446 kts 200°
2026-05-05 07:41 68.72011 16.95005 26279 ft 446 kts 192°
2026-05-05 07:41 68.68973 16.93116 26399 ft 448 kts 192°
2026-05-05 07:41 68.65931 16.91229 26525 ft 448 kts 192°
2026-05-05 07:42 68.62887 16.89336 26649 ft 448 kts 192°
2026-05-05 07:42 68.59843 16.87449 26775 ft 449 kts 192°
2026-05-05 07:42 68.56800 16.85575 26897 ft 449 kts 192°
2026-05-05 07:42 68.53748 16.83704 27023 ft 449 kts 192°
2026-05-05 07:43 68.50700 16.81830 27148 ft 449 kts 192°
2026-05-05 07:43 68.47654 16.79959 27272 ft 449 kts 192°
2026-05-05 07:43 68.44606 16.78095 27400 ft 449 kts 192°
2026-05-05 07:43 68.41563 16.76243 27522 ft 448 kts 192°
2026-05-05 07:44 68.38514 16.74390 27648 ft 448 kts 192°
2026-05-05 07:44 68.35469 16.72544 27771 ft 448 kts 192°
2026-05-05 07:44 68.32428 16.70706 27897 ft 448 kts 192°
2026-05-05 07:44 68.29385 16.68870 28022 ft 448 kts 192°
2026-05-05 07:45 68.26344 16.67043 28144 ft 448 kts 192°
2026-05-05 07:45 68.23296 16.65225 28279 ft 448 kts 192°
2026-05-05 07:45 68.20249 16.63409 28396 ft 448 kts 192°
2026-05-05 07:45 68.17243 16.61618 28513 ft 449 kts 192°
2026-05-05 07:46 68.14194 16.59807 28645 ft 449 kts 192°
2026-05-05 07:46 68.11139 16.58000 28766 ft 450 kts 192°
2026-05-05 07:46 68.08083 16.56193 28892 ft 450 kts 192°
2026-05-05 07:46 68.05031 16.54388 29017 ft 450 kts 192°
2026-05-05 07:47 68.01967 16.52580 29141 ft 451 kts 192°
2026-05-05 07:47 67.98902 16.50780 29267 ft 451 kts 192°
2026-05-05 07:47 67.95836 16.48982 29391 ft 452 kts 192°
2026-05-05 07:47 67.92761 16.47184 29517 ft 452 kts 192°
2026-05-05 07:48 67.89684 16.45383 29653 ft 452 kts 193°
2026-05-05 07:48 67.86678 16.42892 29805 ft 452 kts 202°
2026-05-05 07:48 67.83825 16.39360 29963 ft 452 kts 206°
2026-05-05 07:48 67.81003 16.35677 30125 ft 453 kts 206°
2026-05-05 07:49 67.78170 16.31993 30304 ft 453 kts 206°
2026-05-05 07:49 67.75326 16.28309 30495 ft 453 kts 206°
2026-05-05 07:49 67.72501 16.24660 30684 ft 453 kts 206°
2026-05-05 07:49 67.69705 16.21063 30872 ft 453 kts 206°
2026-05-05 07:50 67.66868 16.17426 31071 ft 454 kts 206°
2026-05-05 07:50 67.64033 16.13795 31238 ft 454 kts 206°
2026-05-05 07:50 67.61196 16.10169 31425 ft 454 kts 206°
2026-05-05 07:50 67.58354 16.06549 31608 ft 454 kts 206°
2026-05-05 07:51 67.55505 16.02940 31798 ft 454 kts 206°
2026-05-05 07:51 67.52661 15.99346 31990 ft 454 kts 206°
2026-05-05 07:51 67.49813 15.95750 32177 ft 454 kts 206°
2026-05-05 07:51 67.46962 15.92157 32354 ft 454 kts 206°
2026-05-05 07:52 67.44107 15.88566 32533 ft 455 kts 206°
2026-05-05 07:52 67.41249 15.84984 32717 ft 455 kts 206°
2026-05-05 07:52 67.38396 15.81423 32914 ft 455 kts 206°
2026-05-05 07:52 67.35538 15.77868 33111 ft 455 kts 206°
2026-05-05 07:53 67.32679 15.74315 33316 ft 455 kts 206°
2026-05-05 07:53 67.29864 15.70814 33527 ft 455 kts 206°
2026-05-05 07:53 67.27004 15.67267 33733 ft 455 kts 206°
2026-05-05 07:53 67.24144 15.63732 33947 ft 455 kts 207°
2026-05-05 07:54 67.21284 15.60224 34151 ft 455 kts 206°
2026-05-05 07:54 67.18417 15.56723 34355 ft 455 kts 206°
2026-05-05 07:54 67.15558 15.53231 34555 ft 455 kts 206°
2026-05-05 07:54 67.12698 15.49747 34761 ft 455 kts 206°
2026-05-05 07:55 67.09839 15.46271 34969 ft 454 kts 206°
2026-05-05 07:55 67.06976 15.42794 35177 ft 454 kts 206°
2026-05-05 07:55 67.04116 15.39331 35390 ft 454 kts 206°
2026-05-05 07:55 67.01253 15.35878 35571 ft 454 kts 206°
2026-05-05 07:56 66.95530 15.29002 35626 ft 453 kts 206°
2026-05-05 07:56 66.89821 15.22163 35639 ft 453 kts 206°
2026-05-05 07:57 66.84103 15.15358 35637 ft 453 kts 206°
2026-05-05 07:57 66.78389 15.08587 35641 ft 453 kts 206°
2026-05-05 07:58 66.72706 15.01898 35650 ft 453 kts 206°
2026-05-05 07:58 66.66981 14.95205 35647 ft 453 kts 206°
2026-05-05 07:59 66.61256 14.88543 35656 ft 453 kts 206°
2026-05-05 07:59 66.55527 14.81899 35660 ft 452 kts 206°
2026-05-05 08:00 66.49810 14.75293 35660 ft 453 kts 206°
2026-05-05 08:00 66.44082 14.68724 35667 ft 452 kts 206°
2026-05-05 08:01 66.38357 14.62182 35669 ft 453 kts 206°
2026-05-05 08:01 66.32623 14.55670 35675 ft 453 kts 206°
2026-05-05 08:02 66.26895 14.49192 35677 ft 452 kts 206°
2026-05-05 08:02 66.21155 14.42721 35678 ft 453 kts 206°
2026-05-05 08:03 66.15412 14.36293 35678 ft 452 kts 206°
2026-05-05 08:03 66.09704 14.29936 35676 ft 453 kts 206°
2026-05-05 08:04 66.03963 14.23578 35674 ft 452 kts 206°
2026-05-05 08:04 65.98225 14.17257 35670 ft 452 kts 206°
2026-05-05 08:05 65.92478 14.10954 35668 ft 452 kts 206°
2026-05-05 08:05 65.86728 14.04666 35670 ft 452 kts 206°
2026-05-05 08:06 65.80976 13.98419 35672 ft 452 kts 206°
2026-05-05 08:06 65.75223 13.92226 35678 ft 452 kts 205°
2026-05-05 08:07 65.69407 13.86252 35694 ft 452 kts 204°
2026-05-05 08:07 65.63590 13.80435 35700 ft 452 kts 204°
2026-05-05 08:08 65.57773 13.74615 35705 ft 452 kts 205°
2026-05-05 08:08 65.51977 13.68785 35707 ft 451 kts 205°
2026-05-05 08:09 65.46225 13.63005 35707 ft 451 kts 205°
2026-05-05 08:09 65.40421 13.57208 35711 ft 450 kts 205°
2026-05-05 08:10 65.34621 13.51484 35708 ft 450 kts 205°
2026-05-05 08:10 65.28827 13.45790 35716 ft 450 kts 205°
2026-05-05 08:11 65.23031 13.40103 35718 ft 449 kts 205°
2026-05-05 08:11 65.17249 13.34457 35718 ft 449 kts 205°
2026-05-05 08:12 65.11463 13.28821 35725 ft 449 kts 205°
2026-05-05 08:12 65.05679 13.23210 35726 ft 449 kts 205°
2026-05-05 08:13 64.99889 13.17625 35727 ft 450 kts 205°
2026-05-05 08:13 64.94132 13.12114 35737 ft 449 kts 205°
2026-05-05 08:14 64.88345 13.06607 35739 ft 449 kts 205°
2026-05-05 08:14 64.82564 13.01112 35740 ft 448 kts 205°
2026-05-05 08:15 64.76784 12.95645 35745 ft 448 kts 205°
2026-05-05 08:15 64.70971 12.90307 35753 ft 448 kts 204°
2026-05-05 08:16 64.65108 12.85337 35748 ft 448 kts 202°
2026-05-05 08:16 64.59228 12.80477 35757 ft 449 kts 202°
2026-05-05 08:17 64.53355 12.75593 35761 ft 448 kts 203°
2026-05-05 08:17 64.47491 12.70672 35763 ft 448 kts 203°
2026-05-05 08:18 64.41626 12.65751 35770 ft 447 kts 203°
2026-05-05 08:18 64.35774 12.60889 35777 ft 447 kts 203°
2026-05-05 08:19 64.29910 12.56050 35786 ft 447 kts 203°
2026-05-05 08:19 64.24051 12.51239 35784 ft 448 kts 203°
2026-05-05 08:20 64.18210 12.46464 35790 ft 448 kts 203°
2026-05-05 08:20 64.12339 12.41668 35791 ft 447 kts 203°
2026-05-05 08:21 64.07430 12.37666 35790 ft 448 kts 203°
2026-05-05 08:21 64.01555 12.32914 35800 ft 447 kts 203°
2026-05-05 08:22 63.95686 12.28211 35803 ft 447 kts 203°
2026-05-05 08:22 63.89824 12.23523 35810 ft 446 kts 203°
2026-05-05 08:23 63.83967 12.18845 35804 ft 446 kts 203°
2026-05-05 08:23 63.78141 12.14206 35809 ft 447 kts 203°
2026-05-05 08:24 63.72271 12.09569 35815 ft 446 kts 203°
2026-05-05 08:24 63.66403 12.04948 35818 ft 446 kts 203°
2026-05-05 08:25 63.60540 12.00341 35816 ft 446 kts 203°
2026-05-05 08:25 63.54676 11.95762 35831 ft 446 kts 203°
2026-05-05 08:26 63.48809 11.91219 35838 ft 446 kts 202°
2026-05-05 08:26 63.42953 11.86704 35850 ft 445 kts 203°
2026-05-05 08:27 63.37101 11.82194 35848 ft 445 kts 203°
2026-05-05 08:27 63.31106 11.78601 35846 ft 447 kts 197°
2026-05-05 08:28 63.25024 11.75630 35849 ft 447 kts 197°
2026-05-05 08:28 63.18972 11.72697 35852 ft 447 kts 197°
2026-05-05 08:29 63.12907 11.69755 35853 ft 446 kts 197°
2026-05-05 08:30 63.03821 11.65363 35843 ft 445 kts 197°
2026-05-05 08:30 62.97771 11.62463 35833 ft 445 kts 197°
2026-05-05 08:31 62.91724 11.59577 35824 ft 445 kts 197°
2026-05-05 08:31 62.85682 11.56691 35823 ft 443 kts 197°
2026-05-05 08:32 62.79651 11.53827 35816 ft 443 kts 197°
2026-05-05 08:32 62.73627 11.50980 35809 ft 443 kts 197°
2026-05-05 08:33 62.67604 11.48151 35804 ft 442 kts 197°
2026-05-05 08:33 62.61582 11.45340 35801 ft 442 kts 198°
2026-05-05 08:34 62.55561 11.42537 35800 ft 442 kts 198°
2026-05-05 08:34 62.49542 11.39732 35800 ft 442 kts 198°
2026-05-05 08:35 62.43529 11.36954 35798 ft 442 kts 198°
2026-05-05 08:35 62.37513 11.34196 35802 ft 441 kts 198°
2026-05-05 08:36 62.31547 11.31470 35793 ft 441 kts 198°
2026-05-05 08:36 62.25534 11.28713 35791 ft 441 kts 198°
2026-05-05 08:37 62.19527 11.25969 35799 ft 441 kts 198°
2026-05-05 08:37 62.13528 11.23250 35800 ft 441 kts 198°
2026-05-05 08:38 62.07515 11.20542 35798 ft 441 kts 198°
2026-05-05 08:38 62.01514 11.17851 35799 ft 441 kts 198°
2026-05-05 08:39 61.95514 11.15165 35822 ft 438 kts 198°
2026-05-05 08:39 61.89581 11.12532 35818 ft 434 kts 198°
2026-05-05 08:40 61.83669 11.09907 35805 ft 435 kts 198°
2026-05-05 08:40 61.77775 11.07295 35813 ft 435 kts 198°
2026-05-05 08:41 61.71856 11.04686 35817 ft 435 kts 198°
2026-05-05 08:41 61.65937 11.02089 35826 ft 435 kts 198°
2026-05-05 08:42 61.60018 10.99502 35838 ft 434 kts 198°
2026-05-05 08:42 61.54111 10.96924 35835 ft 433 kts 198°
2026-05-05 08:43 61.48199 10.94356 35842 ft 434 kts 198°
2026-05-05 08:43 61.42281 10.91807 35847 ft 432 kts 198°
2026-05-05 08:44 61.36392 10.89272 35846 ft 433 kts 198°
2026-05-05 08:44 61.30482 10.86740 35865 ft 433 kts 198°
2026-05-05 08:45 61.24599 10.84228 35867 ft 431 kts 198°
2026-05-05 08:45 61.18715 10.81719 35859 ft 431 kts 198°
2026-05-05 08:46 61.12838 10.79223 35876 ft 430 kts 198°
2026-05-05 08:46 61.06977 10.76750 35883 ft 429 kts 198°
2026-05-05 08:47 61.01156 10.74303 35884 ft 429 kts 198°
2026-05-05 08:47 60.95315 10.71838 35884 ft 428 kts 198°
2026-05-05 08:48 60.89466 10.69395 35883 ft 429 kts 198°
2026-05-05 08:48 60.83628 10.66982 35890 ft 427 kts 198°
2026-05-05 08:49 60.77810 10.64587 35897 ft 426 kts 198°
2026-05-05 08:49 60.71987 10.62179 35895 ft 427 kts 199°
2026-05-05 08:50 60.66170 10.59772 35899 ft 425 kts 199°
2026-05-05 08:50 60.60378 10.57397 35900 ft 424 kts 198°
2026-05-05 08:51 60.54584 10.55040 35899 ft 424 kts 198°
2026-05-05 08:51 60.48833 10.52709 35904 ft 423 kts 199°
2026-05-05 08:52 60.43061 10.50367 35898 ft 423 kts 199°
2026-05-05 08:52 60.37297 10.48025 35896 ft 423 kts 198°
2026-05-05 08:53 60.31530 10.45692 35902 ft 422 kts 199°
2026-05-05 08:53 60.25766 10.43388 35900 ft 422 kts 199°
2026-05-05 08:54 60.20002 10.41095 35910 ft 421 kts 199°
2026-05-05 08:54 60.14250 10.38813 35900 ft 421 kts 199°
2026-05-05 08:55 60.09529 10.36928 35902 ft 421 kts 199°
2026-05-05 08:55 60.03781 10.34648 35901 ft 421 kts 199°
2026-05-05 08:56 59.98077 10.32410 35913 ft 419 kts 199°
2026-05-05 08:56 59.92358 10.30166 35911 ft 419 kts 199°
2026-05-05 08:57 59.86630 10.27925 35910 ft 419 kts 199°
2026-05-05 08:57 59.80898 10.25693 35914 ft 419 kts 199°
2026-05-05 08:58 59.75177 10.23463 35913 ft 418 kts 199°
2026-05-05 08:58 59.69461 10.21244 35925 ft 419 kts 199°
2026-05-05 08:59 59.63738 10.19038 35925 ft 419 kts 199°
2026-05-05 08:59 59.58008 10.16843 35930 ft 420 kts 198°
2026-05-05 09:00 59.52287 10.14643 35927 ft 418 kts 198°
2026-05-05 09:00 59.46560 10.12449 35925 ft 420 kts 198°
2026-05-05 09:01 59.40825 10.10272 35929 ft 420 kts 198°
2026-05-05 09:01 59.35105 10.08108 35921 ft 419 kts 198°
2026-05-05 09:02 59.29377 10.05934 35921 ft 420 kts 198°
2026-05-05 09:02 59.23680 10.03780 35933 ft 419 kts 198°
2026-05-05 09:03 59.17960 10.01636 35926 ft 419 kts 198°
2026-05-05 09:03 59.12217 9.99490 35916 ft 421 kts 198°
2026-05-05 09:04 59.07390 9.97683 35913 ft 423 kts 198°
2026-05-05 09:04 59.01611 9.95533 35923 ft 422 kts 198°
2026-05-05 09:05 58.94900 9.93057 35923 ft 422 kts 198°
2026-05-05 09:05 58.90100 9.91288 35929 ft 422 kts 198°
2026-05-05 09:06 58.84323 9.89157 35929 ft 422 kts 198°
2026-05-05 09:06 58.78546 9.87030 35931 ft 423 kts 198°
2026-05-05 09:07 58.72771 9.84920 35937 ft 422 kts 197°
2026-05-05 09:07 58.67001 9.82825 35943 ft 421 kts 197°
2026-05-05 09:08 58.61239 9.80733 35941 ft 421 kts 197°
2026-05-05 09:08 58.55467 9.78643 35946 ft 421 kts 197°
2026-05-05 09:09 58.49698 9.76565 35946 ft 421 kts 197°
2026-05-05 09:09 58.43936 9.74475 35946 ft 421 kts 197°
2026-05-05 09:10 58.38168 9.72408 35951 ft 421 kts 197°
2026-05-05 09:10 58.32400 9.70351 35947 ft 422 kts 197°
2026-05-05 09:11 58.26628 9.68294 35951 ft 422 kts 197°
2026-05-05 09:11 58.20896 9.66274 35954 ft 422 kts 197°
2026-05-05 09:12 58.15121 9.64229 35963 ft 422 kts 197°
2026-05-05 09:12 58.09341 9.62214 35961 ft 423 kts 194°
2026-05-05 09:13 58.03368 9.62156 35953 ft 434 kts 183°
2026-05-05 09:13 57.97336 9.62868 35954 ft 434 kts 183°
2026-05-05 09:14 57.91308 9.63568 35958 ft 434 kts 183°
2026-05-05 09:14 57.85272 9.64259 35961 ft 434 kts 183°
2026-05-05 09:15 57.79240 9.64932 35965 ft 435 kts 183°
2026-05-05 09:15 57.73237 9.65610 35972 ft 434 kts 183°
2026-05-05 09:16 57.67202 9.66287 35970 ft 434 kts 183°
2026-05-05 09:16 57.61170 9.66971 35973 ft 434 kts 183°
2026-05-05 09:17 57.55135 9.67654 35971 ft 434 kts 183°
2026-05-05 09:17 57.49104 9.68317 35973 ft 434 kts 183°
2026-05-05 09:18 57.43072 9.68994 35972 ft 434 kts 183°
2026-05-05 09:18 57.37035 9.69655 35974 ft 434 kts 183°
2026-05-05 09:19 57.30998 9.70318 35976 ft 435 kts 183°
2026-05-05 09:19 57.24993 9.70984 35975 ft 435 kts 183°
2026-05-05 09:20 57.18953 9.71649 35972 ft 435 kts 182°
2026-05-05 09:20 57.12909 9.72305 35974 ft 435 kts 182°
2026-05-05 09:21 57.06862 9.72970 35974 ft 435 kts 182°
2026-05-05 09:21 57.00818 9.73641 35973 ft 435 kts 182°
2026-05-05 09:22 56.94765 9.74298 35971 ft 436 kts 182°
2026-05-05 09:22 56.88714 9.74942 35972 ft 435 kts 182°
2026-05-05 09:23 56.82663 9.75579 35979 ft 435 kts 182°
2026-05-05 09:23 56.76621 9.76231 35982 ft 435 kts 182°
2026-05-05 09:24 56.70574 9.76884 35977 ft 435 kts 182°
2026-05-05 09:24 56.64528 9.77534 35976 ft 435 kts 182°
2026-05-05 09:25 56.58483 9.78186 35971 ft 435 kts 182°
2026-05-05 09:25 56.52466 9.78820 35973 ft 435 kts 182°
2026-05-05 09:26 56.46382 9.79446 35972 ft 435 kts 182°
2026-05-05 09:26 56.40364 9.80068 35975 ft 436 kts 181°
2026-05-05 09:27 56.34316 9.80709 35985 ft 435 kts 181°
2026-05-05 09:27 56.28271 9.81341 35980 ft 435 kts 181°
2026-05-05 09:28 56.22221 9.81965 35976 ft 435 kts 181°
2026-05-05 09:28 56.16166 9.82595 35979 ft 435 kts 181°
2026-05-05 09:29 56.10120 9.83234 35977 ft 435 kts 181°
2026-05-05 09:29 56.04077 9.83857 35975 ft 435 kts 181°
2026-05-05 09:30 55.98030 9.84467 35973 ft 435 kts 181°
2026-05-05 09:30 55.91988 9.85086 35975 ft 435 kts 181°
2026-05-05 09:31 55.85933 9.85712 35978 ft 435 kts 181°
2026-05-05 09:31 55.79889 9.86335 35974 ft 435 kts 181°
2026-05-05 09:32 55.73843 9.86958 35975 ft 435 kts 181°
2026-05-05 09:32 55.67839 9.87564 35972 ft 435 kts 181°
2026-05-05 09:33 55.61791 9.88170 35968 ft 435 kts 181°
2026-05-05 09:33 55.55740 9.88771 35972 ft 435 kts 181°
2026-05-05 09:34 55.49693 9.89371 35972 ft 435 kts 181°
2026-05-05 09:34 55.43639 9.89973 35984 ft 434 kts 181°
2026-05-05 09:35 55.37602 9.90578 35984 ft 434 kts 181°
2026-05-05 09:35 55.28541 9.91483 35980 ft 434 kts 181°
2026-05-05 09:36 55.22498 9.92075 35991 ft 434 kts 181°
2026-05-05 09:36 55.16465 9.92665 35989 ft 434 kts 181°
2026-05-05 09:37 55.10474 9.93260 35994 ft 434 kts 181°
2026-05-05 09:37 55.04449 9.93854 35995 ft 433 kts 181°
2026-05-05 09:38 54.98428 9.94448 36003 ft 433 kts 181°
2026-05-05 09:38 54.92402 9.95035 36000 ft 433 kts 181°
2026-05-05 09:39 54.86382 9.95614 36008 ft 433 kts 181°
2026-05-05 09:39 54.80373 9.96017 36011 ft 429 kts 188°
2026-05-05 09:40 54.74471 9.94972 36000 ft 426 kts 191°
2026-05-05 09:40 54.68564 9.93842 35990 ft 427 kts 191°
2026-05-05 09:41 54.62657 9.92706 35996 ft 426 kts 191°
2026-05-05 09:41 54.56757 9.91580 35995 ft 426 kts 191°
2026-05-05 09:42 54.50855 9.90472 35991 ft 427 kts 191°
2026-05-05 09:42 54.44982 9.89385 35991 ft 426 kts 191°
2026-05-05 09:43 54.39082 9.88283 35987 ft 426 kts 190°
2026-05-05 09:43 54.33190 9.87184 35984 ft 426 kts 191°
2026-05-05 09:44 54.27297 9.86084 35981 ft 426 kts 191°
2026-05-05 09:44 54.21405 9.84985 35985 ft 426 kts 191°
2026-05-05 09:45 54.16508 9.84074 35979 ft 425 kts 191°
2026-05-05 09:45 54.10582 9.82986 35978 ft 425 kts 191°
2026-05-05 09:46 54.04737 9.81912 35977 ft 425 kts 191°
2026-05-05 09:46 53.98848 9.80835 35976 ft 425 kts 191°
2026-05-05 09:47 53.92956 9.79758 35976 ft 425 kts 191°
2026-05-05 09:47 53.87069 9.78684 35972 ft 425 kts 191°
2026-05-05 09:48 53.81182 9.77610 35969 ft 425 kts 191°
2026-05-05 09:48 53.75299 9.76536 35973 ft 424 kts 191°
2026-05-05 09:49 53.69424 9.75477 35973 ft 425 kts 190°
2026-05-05 09:49 53.63551 9.74419 35975 ft 425 kts 190°
2026-05-05 09:50 53.57664 9.73370 35975 ft 425 kts 190°
2026-05-05 09:50 53.51786 9.72320 35975 ft 424 kts 191°
2026-05-05 09:51 53.45946 9.71263 35977 ft 424 kts 191°
2026-05-05 09:51 53.40073 9.70215 35977 ft 424 kts 190°
2026-05-05 09:52 53.34200 9.69173 35977 ft 424 kts 190°
2026-05-05 09:52 53.28332 9.68132 35974 ft 424 kts 190°
2026-05-05 09:53 53.22460 9.67088 35972 ft 424 kts 191°
2026-05-05 09:53 53.16589 9.66047 35969 ft 423 kts 190°
2026-05-05 09:54 53.10730 9.65032 35964 ft 423 kts 191°
2026-05-05 09:54 53.04877 9.64007 35955 ft 423 kts 191°
2026-05-05 09:55 52.99052 9.62983 35952 ft 423 kts 191°
2026-05-05 09:55 52.93212 9.61962 35950 ft 421 kts 191°
2026-05-05 09:56 52.87377 9.60939 35947 ft 422 kts 191°
2026-05-05 09:56 52.81546 9.59926 35944 ft 421 kts 191°
2026-05-05 09:57 52.75720 9.58916 35937 ft 421 kts 191°
2026-05-05 09:57 52.69887 9.57909 35935 ft 421 kts 191°
2026-05-05 09:58 52.64054 9.56907 35938 ft 421 kts 191°
2026-05-05 09:58 52.58217 9.55906 35935 ft 421 kts 191°
2026-05-05 09:59 52.52387 9.54912 35936 ft 420 kts 191°
2026-05-05 09:59 52.46607 9.53930 35935 ft 420 kts 191°
2026-05-05 10:00 52.40783 9.52938 35932 ft 420 kts 191°
2026-05-05 10:00 52.34971 9.51954 35926 ft 420 kts 191°
2026-05-05 10:01 52.29157 9.50970 35929 ft 419 kts 191°
2026-05-05 10:01 52.23375 9.49993 35927 ft 419 kts 191°
2026-05-05 10:02 52.17526 9.49011 35926 ft 419 kts 191°
2026-05-05 10:02 52.11756 9.48040 35923 ft 419 kts 191°
2026-05-05 10:03 52.05958 9.47065 35921 ft 419 kts 191°
2026-05-05 10:03 52.00156 9.46085 35919 ft 419 kts 191°
2026-05-05 10:04 51.94359 9.45112 35930 ft 417 kts 191°
2026-05-05 10:04 51.88585 9.44156 35926 ft 417 kts 191°
2026-05-05 10:05 51.82810 9.43204 35922 ft 417 kts 191°
2026-05-05 10:05 51.77035 9.42248 35921 ft 417 kts 191°
2026-05-05 10:06 51.71259 9.41301 35917 ft 417 kts 191°
2026-05-05 10:06 51.65487 9.40347 35916 ft 416 kts 191°
2026-05-05 10:07 51.59763 9.39397 35910 ft 416 kts 191°
2026-05-05 10:07 51.53960 9.38447 35909 ft 416 kts 190°
2026-05-05 10:08 51.48243 9.37520 35908 ft 415 kts 190°
2026-05-05 10:08 51.42497 9.36582 35904 ft 415 kts 191°
2026-05-05 10:09 51.36756 9.35637 35906 ft 414 kts 190°
2026-05-05 10:09 51.31014 9.34714 35900 ft 415 kts 190°
2026-05-05 10:10 51.25284 9.33636 35902 ft 413 kts 192°
2026-05-05 10:10 51.19621 9.32190 35906 ft 412 kts 194°
2026-05-05 10:11 51.13959 9.30699 35906 ft 412 kts 193°
2026-05-05 10:11 51.08331 9.29311 35907 ft 411 kts 193°
2026-05-05 10:12 51.02633 9.27954 35905 ft 411 kts 192°
2026-05-05 10:12 50.97008 9.26615 35900 ft 411 kts 192°
2026-05-05 10:13 50.91352 9.25247 35901 ft 410 kts 192°
2026-05-05 10:13 50.85697 9.23890 35898 ft 410 kts 192°
2026-05-05 10:14 50.80049 9.22542 35899 ft 410 kts 192°
2026-05-05 10:14 50.74412 9.21212 35897 ft 410 kts 192°
2026-05-05 10:15 50.68764 9.19907 35898 ft 410 kts 192°
2026-05-05 10:15 50.63111 9.18728 35897 ft 410 kts 191°
2026-05-05 10:16 50.57480 9.17592 35898 ft 409 kts 191°
2026-05-05 10:16 50.51821 9.16437 35897 ft 409 kts 191°
2026-05-05 10:17 50.46177 9.15278 35894 ft 408 kts 191°
2026-05-05 10:17 50.40577 9.14112 35888 ft 408 kts 191°
2026-05-05 10:18 50.34946 9.12955 35887 ft 408 kts 191°
2026-05-05 10:18 50.29314 9.11809 35882 ft 408 kts 191°
2026-05-05 10:19 50.23677 9.10664 35881 ft 408 kts 191°
2026-05-05 10:19 50.18048 9.09507 35866 ft 407 kts 191°
2026-05-05 10:20 50.12426 9.08355 35875 ft 408 kts 191°
2026-05-05 10:20 50.06798 9.07216 35880 ft 408 kts 191°
2026-05-05 10:21 50.01173 9.06071 35882 ft 407 kts 191°
2026-05-05 10:21 49.95557 9.04935 35882 ft 407 kts 190°
2026-05-05 10:22 49.89942 9.03813 35880 ft 406 kts 190°
2026-05-05 10:22 49.84328 9.02681 35865 ft 406 kts 190°
2026-05-05 10:23 49.78721 9.01554 35878 ft 406 kts 190°
2026-05-05 10:23 49.73115 9.00419 35882 ft 406 kts 190°
2026-05-05 10:24 49.67547 8.99310 35885 ft 406 kts 190°
2026-05-05 10:24 49.61960 8.98074 35881 ft 405 kts 192°
2026-05-05 10:25 49.56419 8.96509 35883 ft 405 kts 193°
2026-05-05 10:25 49.50880 8.94892 35889 ft 405 kts 193°
2026-05-05 10:26 49.45336 8.93339 35883 ft 406 kts 192°
2026-05-05 10:26 49.39781 8.91836 35888 ft 405 kts 192°
2026-05-05 10:27 49.35164 8.90583 35890 ft 405 kts 192°
2026-05-05 10:27 49.29626 8.89082 35322 ft 402 kts 192°
2026-05-05 10:28 49.26871 8.88331 34448 ft 402 kts 192°
2026-05-05 10:28 49.24113 8.87579 33552 ft 402 kts 192°
2026-05-05 10:28 49.21359 8.86828 32613 ft 402 kts 192°
2026-05-05 10:28 49.18595 8.86077 31713 ft 403 kts 192°
2026-05-05 10:29 49.15826 8.85316 31276 ft 409 kts 192°
2026-05-05 10:29 49.13010 8.84539 30751 ft 412 kts 192°
2026-05-05 10:29 49.10184 8.83766 30224 ft 414 kts 192°
2026-05-05 10:29 49.07340 8.82995 29698 ft 417 kts 191°
2026-05-05 10:30 49.04484 8.82225 29169 ft 412 kts 191°
2026-05-05 10:30 49.01699 8.81478 28649 ft 401 kts 191°
2026-05-05 10:30 48.98987 8.80748 28130 ft 391 kts 191°
2026-05-05 10:30 48.96337 8.80031 27609 ft 383 kts 191°
2026-05-05 10:31 48.93724 8.79321 27095 ft 381 kts 191°
2026-05-05 10:31 48.91114 8.78613 26873 ft 381 kts 191°
2026-05-05 10:31 48.88493 8.77901 26865 ft 383 kts 191°
2026-05-05 10:31 48.85900 8.77201 26877 ft 384 kts 191°
2026-05-05 10:32 48.83277 8.76496 26876 ft 383 kts 191°
2026-05-05 10:32 48.80617 8.75787 26876 ft 383 kts 191°
2026-05-05 10:32 48.78024 8.75098 26876 ft 383 kts 191°
2026-05-05 10:32 48.75398 8.74400 26870 ft 383 kts 191°
2026-05-05 10:33 48.72778 8.73701 26875 ft 383 kts 191°
2026-05-05 10:33 48.70156 8.72999 26878 ft 383 kts 191°
2026-05-05 10:33 48.67537 8.72296 26849 ft 383 kts 191°
2026-05-05 10:33 48.64921 8.71598 26498 ft 377 kts 191°
2026-05-05 10:34 48.62358 8.70912 25910 ft 371 kts 191°
2026-05-05 10:34 48.59836 8.70236 25337 ft 366 kts 191°
2026-05-05 10:34 48.57342 8.69567 24784 ft 362 kts 191°
2026-05-05 10:34 48.54875 8.68905 24209 ft 357 kts 191°
2026-05-05 10:35 48.52440 8.68258 23651 ft 353 kts 190°
2026-05-05 10:35 48.50030 8.67624 23093 ft 350 kts 190°
2026-05-05 10:35 48.47641 8.66998 22529 ft 346 kts 190°
2026-05-05 10:35 48.45275 8.66376 21981 ft 344 kts 190°
2026-05-05 10:36 48.42929 8.65759 21408 ft 340 kts 190°
2026-05-05 10:36 48.40602 8.65147 20855 ft 337 kts 190°
2026-05-05 10:36 48.38299 8.64542 20294 ft 335 kts 190°
2026-05-05 10:36 48.36017 8.63911 19735 ft 332 kts 191°
2026-05-05 10:37 48.33763 8.63236 19177 ft 329 kts 191°
2026-05-05 10:37 48.31555 8.62550 18621 ft 326 kts 192°
2026-05-05 10:37 48.29364 8.61861 18061 ft 317 kts 192°
2026-05-05 10:37 48.27236 8.61201 17531 ft 307 kts 191°
2026-05-05 10:38 48.25169 8.60569 17011 ft 301 kts 191°
2026-05-05 10:38 48.23110 8.59946 16484 ft 302 kts 191°
2026-05-05 10:38 48.21062 8.59333 15951 ft 298 kts 191°
2026-05-05 10:38 48.19050 8.58734 15434 ft 293 kts 191°
2026-05-05 10:39 48.17057 8.58140 14881 ft 290 kts 191°
2026-05-05 10:39 48.15084 8.57549 14239 ft 288 kts 191°
2026-05-05 10:39 48.13127 8.56955 13610 ft 287 kts 191°
2026-05-05 10:39 48.11176 8.56367 12982 ft 285 kts 191°
2026-05-05 10:40 48.09246 8.55760 12357 ft 283 kts 195°
2026-05-05 10:40 48.07526 8.54372 11780 ft 285 kts 219°
2026-05-05 10:40 48.06087 8.52299 11308 ft 288 kts 223°
2026-05-05 10:40 48.04689 8.50160 10911 ft 287 kts 224°
2026-05-05 10:41 48.03293 8.48025 10490 ft 287 kts 224°
2026-05-05 10:41 48.01895 8.45899 10075 ft 287 kts 224°
2026-05-05 10:41 48.00496 8.43786 9852 ft 285 kts 224°
2026-05-05 10:41 47.99085 8.41664 9851 ft 289 kts 224°
2026-05-05 10:42 47.95791 8.38418 9844 ft 286 kts 204°
2026-05-05 10:42 47.93984 8.37152 9820 ft 287 kts 204°
2026-05-05 10:42 47.92183 8.35901 9554 ft 284 kts 203°
2026-05-05 10:43 47.90394 8.34667 9144 ft 282 kts 204°
2026-05-05 10:43 47.88630 8.33460 8748 ft 283 kts 204°
2026-05-05 10:43 47.86845 8.32241 8271 ft 280 kts 204°
2026-05-05 10:43 47.85075 8.31045 7697 ft 279 kts 204°
2026-05-05 10:44 47.83310 8.29861 7149 ft 278 kts 204°
2026-05-05 10:44 47.81551 8.28690 6900 ft 271 kts 204°
2026-05-05 10:44 47.79877 8.27583 6713 ft 257 kts 204°
2026-05-05 10:44 47.78212 8.26739 6338 ft 251 kts 186°
2026-05-05 10:45 47.76469 8.26644 5952 ft 252 kts 180°
2026-05-05 10:45 47.74724 8.26692 5672 ft 250 kts 178°
2026-05-05 10:45 47.73017 8.27114 5396 ft 248 kts 165°
2026-05-05 10:45 47.71349 8.27800 5123 ft 248 kts 164°
2026-05-05 10:46 47.69710 8.28505 4983 ft 240 kts 164°
2026-05-05 10:46 47.68142 8.29183 4856 ft 231 kts 163°
2026-05-05 10:46 47.66625 8.29837 4726 ft 223 kts 164°
2026-05-05 10:46 47.65161 8.30497 4597 ft 216 kts 158°
2026-05-05 10:47 47.64017 8.31798 4475 ft 210 kts 128°
2026-05-05 10:47 47.63041 8.33362 4339 ft 205 kts 139°
2026-05-05 10:47 47.61985 8.34759 4210 ft 201 kts 138°
2026-05-05 10:47 47.60958 8.36148 4096 ft 198 kts 138°
2026-05-05 10:48 47.59967 8.37505 4056 ft 188 kts 137°
2026-05-05 10:48 47.59037 8.38782 3999 ft 176 kts 137°
2026-05-05 10:48 47.58168 8.39974 3962 ft 165 kts 138°
2026-05-05 10:48 47.57330 8.41122 3812 ft 163 kts 137°
2026-05-05 10:49 47.56522 8.42233 3608 ft 154 kts 138°
2026-05-05 10:49 47.55753 8.43287 3414 ft 149 kts 138°
2026-05-05 10:49 47.54993 8.44327 3221 ft 148 kts 138°
2026-05-05 10:49 47.54235 8.45366 3029 ft 148 kts 137°
2026-05-05 10:50 47.53502 8.46370 2857 ft 143 kts 136°
2026-05-05 10:50 47.52776 8.47366 2675 ft 141 kts 136°
2026-05-05 10:50 47.52041 8.48334 2520 ft 141 kts 139°
2026-05-05 10:50 47.51306 8.49291 2390 ft 139 kts 137°
2026-05-05 10:51 47.50607 8.50269 2214 ft 140 kts 135°
2026-05-05 10:51 47.49904 8.51275 1989 ft 140 kts 135°
2026-05-05 10:51 47.49200 8.52253 1742 ft 139 kts 137°
2026-05-05 10:51 47.48492 8.53221 1535 ft 138 kts 137°
2026-05-05 10:52 47.47795 8.54171 1401 ft 130 kts 137°
2026-05-05 10:52 47.47261 8.54904 1390 ft 80 kts 136°
2026-05-05 10:52 47.46872 8.55435 1393 ft 72 kts 137°
2026-05-05 10:52 47.46579 8.55826 1398 ft 43 kts 139°
2026-05-05 10:53 47.46380 8.55960 1401 ft 29 kts 168°
2026-05-05 10:53 47.46191 8.56004 1407 ft 24 kts 180°
2026-05-05 10:53 47.46046 8.55981 1408 ft 20 kts 187°
2026-05-05 10:53 47.45933 8.55955 1408 ft 12 kts 196°
2026-05-05 10:54 47.45858 8.55914 1411 ft 11 kts 200°
2026-05-05 10:54 47.45788 8.55881 1411 ft 11 kts 190°
2026-05-05 10:54 47.45706 8.55866 1410 ft 13 kts 187°
2026-05-05 10:54 47.45642 8.55794 1409 ft 14 kts 268°
2026-05-05 10:55 47.45655 8.55632 1406 ft 18 kts 276°
2026-05-05 10:55 47.45668 8.55446 1403 ft 16 kts 276°
2026-05-05 10:55 47.45636 8.55337 1401 ft 12 kts 184°
2026-05-05 10:55 47.45556 8.55385 1408 ft 12 kts 152°
2026-05-05 10:56 47.45528 8.55479 1406 ft 10 kts 96°
2026-05-05 10:56 47.45520 8.55581 1408 ft 11 kts 96°
2026-05-05 10:56 47.45513 8.55684 1409 ft 7 kts 97°
2026-05-05 10:56 47.45478 8.55699 1408 ft 6 kts 188°
2026-05-05 10:57 47.45448 8.55693 1408 ft 3 kts 187°
2026-05-05 10:57 47.45432 8.55691 1408 ft 0 kts 186°